カタログに戻る

CHUANG XIN 20B

CX-20B

運用中通信LEO
NORAD 58426·PAYLOAD·🇨🇳 China

打ち上げ Nov 23, 2023 から Xichang Satellite Launch Center

Loading…

次のパス (今後24時間)

TLE

最新Source: Space-Track

元期: Sep 14, 2026, 20:04 UTC

1 58426U 23181B   26257.83643274 -.00000085  00000-0  77046-4 0  9991
2 58426  49.9608 358.0338 0011900 183.2534 176.8268 13.41498621137772

AllMySatでCHUANG XIN 20Bをリアルタイム追跡

Download on the App Store